Back to catalog

SL-12 R/B

AUX MOTOR

AliveHEO
NORAD 25053·ROCKET BODY·🇷🇺 Russia

Launched Nov 12, 1997 from Baikonur Cosmodrome

Loading…

Next Passes (next 24 hours)

TLE

AgingSource: Space-Track

Epoch: Aug 31, 2026, 09:56 UTC

1 25053U 97070E   26243.41390078 -.00000112  00000-0  00000-0 0  9992
2 25053  45.4535  37.4812 6604061 288.1991  13.9450  2.41726953253729

Track SL-12 R/B in real time with AllMySat

Download on the App Store